Simultaneous Nadir Overpasses (SNOs) Predictions

Prediction of SNOs between GOES-14 and AQUA Satellite Orbit:

Table of predicted SNOs for the next 14.0 days since TLE Epoch: 12/2/2023
Index Date Time (GOES-14) GOES-14 Lat,Lon AQUA Lat,Lon Distance(km) Time Diff (sec)
1 12/03/2023 21:02:15 0.05,-108.60 0.67,-105.86 312.56 80
2 12/04/2023 09:20:03 -0.07,-108.63 0.42,-110.81 248.65 80
3 12/06/2023 09:07:34 -0.06,-108.63 -0.41,-107.12 172.71 80
4 12/06/2023 21:25:32 0.08,-108.60 -0.65,-112.11 399.08 80
5 12/08/2023 21:13:00 0.07,-108.60 0.11,-108.40 23.10 80
6 12/10/2023 20:57:47 0.06,-108.59 0.90,-104.68 445.61 80
7 12/11/2023 09:15:36 -0.07,-108.62 0.12,-109.64 115.20 80
8 12/13/2023 09:03:01 -0.06,-108.61 -0.65,-105.91 307.37 80
9 12/13/2023 21:20:57 0.07,-108.58 -0.44,-110.90 264.02 80
10 12/15/2023 21:08:21 0.07,-108.56 0.39,-107.17 158.85 80
